Avvolovo, Russia

1:24 PM MSK on February 23, 2018 (GMT +0300)
Casa del Chaman, Okhta Park Cottage Settlement | | Change Station

Elev 121 ft 60.12 °N, 30.46 °E | Updated 3 minutes ago

Mostly Cloudy
Mostly Cloudy
17.1 °F
Feels Like 17 °F
N
0.0
Wind Variable Wind from North
Gusts 0.0 mph

Today
High -- | Low -- °F
--% Chance of Precip.
Yesterday
High -- | Low -- °F
Precip. -- in
Pressure 30.33 in
Visibility 5.6 miles
Clouds Scattered Clouds 1100 ft
Mostly Cloudy 2400 ft
Windchill 17 °F
Dew Point 2 °F
Humidity 52%
Rainfall 0.00 in
Snow Depth Not available.
8:15 AM 6:09 PM
Waxing Crescent, 51% visible
METAR ULLI 231000Z 28003MPS 9000 -SN SCT011 BKN024 M11/M13 Q1027 R28L/420542 R28R/490337 NOSIG
Pressure 30.33 in
Visibility 5.6 miles
Clouds Scattered Clouds 1100 ft
Mostly Cloudy 2400 ft
Windchill 17 °F
Dew Point 2 °F
Humidity 52%
Rainfall 0.00 in
Snow Depth Not available.
8:15 AM 6:09 PM
Waxing Crescent, 51% visible
METAR ULLI 231000Z 28003MPS 9000 -SN SCT011 BKN024 M11/M13 Q1027 R28L/420542 R28R/490337 NOSIG

Get Severe Weather Alerts

Thanks for signing up!

Be on the lookout for a verification email in your inbox.

You'll start receiving the daily forecast at 6 AM.

×

10-Day Weather Forecast

×

Almanac

Astronomy

Feb. 23, 2018 Rise Set
Actual Time
Civil Twilight
Nautical Twilight
Astronomical Twilight
Moon
Length of Visible Light
Length of Day
Tomorrow will be .
, % of the Moon is Illuminated

Today's Extremes

Country Highs Country Lows

Community

WunderPhotos

Category 6

Welcome to Category 6. This is the collective home for Weather Underground's featured writeups by Dr. Jeff Masters (right), Bob Henson (left), Chris Burt, and other regular contributors.

Nearby

Air Quality

  Air Quality AQ Index Pollutant
Not available.

Snow Depth

Station Depth Elevation

Earthquake Activity

City Distance Mag. Time & Date
Minimum magnitude displayed is 2.5.

Coastal Water Temperatures

Place Temperature

Stations

Nearby Weather Stations

Station Location Temp. Windchill Dew Point Humidity Wind Precip. Elev Updated Type